This demonstration page uses our WeatherBlox Daily Observations layout. Learn more.

Left ArrowRight Arrow

39.08367, -84.50855

Hourly Observations for July 31, 2017

Temp ( °F °C ) Dew Point ( °F °C ) Humidity (%) Winds ( mph kmh ) Pressure ( in mb ) Visibility ( mi km ) Precip ( " mm )
12:53 am 00:53 Clear 66 18.9 66 18.9 100 100 N N/A 30.15 1021 10 16.0934 N/A
1:53 am 01:53 Clear 65 18.3 65 18.3 100 100 N N/A 30.15 1021 8 12.87472 N/A
2:53 am 02:53 Clear 64 17.8 64 17.8 100 100 N N/A 30.14 1021 7 11.26538 N/A
3:16 am 03:16 Clear with Mist and Fog 63 17.2 63 17.2 100 100 N N/A 30.12 1020 1.25 2.011675 N/A
3:21 am 03:21 Clear with Mist and Fog 63 17.2 63 17.2 100 100 N N/A 30.12 1020 4 6.43736 N/A
3:37 am 03:37 Clear with Mist and Fog 63 17.2 63 17.2 100 100 N N/A 30.12 1020 2 3.21868 N/A
3:41 am 03:41 Clear with Mist and Fog 63 17.2 63 17.2 100 100 N N/A 30.12 1020 0.75 1.207005 N/A
3:51 am 03:51 Clear with Mist and Fog 63 17 63 17 100 100 N N/A 30.12 1020 3 4.82802 N/A
3:53 am 03:53 Clear with Mist and Fog 63 17.2 63 17.2 100 100 N N/A 30.14 1021 5 8.0467 N/A
4:12 am 04:12 Clear with Mist and Fog 63 17.2 63 17.2 100 100 N N/A 30.12 1020 2 3.21868 N/A
4:22 am 04:22 Clear 63 17.2 63 17.2 100 100 ENE 3 6 30.12 1020 7 11.26538 N/A
4:44 am 04:44 Clear with Mist and Fog 61 16.1 61 16.1 100 100 S 3 6 30.12 1020 2 3.21868 N/A
4:53 am 04:53 Clear 60 15.6 60 15.6 100 100 N N/A 30.14 1021 7 11.26538 N/A
5:18 am 05:18 Clear with Mist and Fog 63 17.2 63 17.2 100 100 N N/A 30.12 1020 1.75 2.816345 N/A
5:33 am 05:33 Clear with Mist and Fog 62 16.7 62 16.7 100 100 N N/A 30.12 1020 3 4.82802 N/A
5:53 am 05:53 Clear 63 17.2 63 17.2 100 100 N N/A 30.15 1021 9 14.48406 N/A
6:13 am 06:13 Clear with Mist and Fog 62 16.7 62 16.7 100 100 N N/A 30.15 1021 1.75 2.816345 N/A
6:25 am 06:25 Clear with Mist and Fog 62 16.7 62 16.7 100 100 N N/A 30.15 1021 3 4.82802 N/A
6:53 am 06:53 Sunny with Patchy Fog 62 16.7 62 16.7 100 100 N N/A 30.17 1022 8 12.87472 N/A
7:53 am 07:53 Sunny with Patchy Fog 66 18.9 64 17.8 93 93 NNE 3 6 30.18 1022 10 16.0934 N/A
8:53 am 08:53 Sunny 70 21.1 64 17.8 82 82 N N/A 30.19 1022 10 16.0934 N/A
9:53 am 09:53 Sunny 75 23.9 65 18.3 71 71 NE 6 9 30.19 1023 10 16.0934 N/A
10:53 am 10:53 Sunny 79 26.1 65 18.3 62 62 NE 5 7 30.19 1022 10 16.0934 N/A
11:53 am 11:53 Sunny 82 27.8 66 18.9 58 58 NNE 3 6 30.18 1022 10 16.0934 N/A
12:53 pm 12:53 Sunny 84 28.9 64 17.8 51 51 NNE 3 6 30.17 1022 10 16.0934 N/A
1:53 pm 13:53 Mostly Sunny 85 29.4 64 17.8 50 50 ENE 6 9 30.15 1021 10 16.0934 N/A
2:53 pm 14:53 Partly Cloudy 86 30 64 17.8 48 48 NE 7 11 30.14 1021 10 16.0934 N/A
3:53 pm 15:53 Partly Cloudy 86 30 64 17.8 48 48 VRB 5 7 30.13 1020 10 16.0934 N/A
4:53 pm 16:53 Mostly Sunny 86 30 61 16.1 43 43 E 3 6 30.12 1020 10 16.0934 N/A
5:53 pm 17:53 Mostly Sunny 86 30 63 17.2 46 46 E 3 6 30.1 1019 10 16.0934 N/A
6:53 pm 18:53 Mostly Sunny 84 28.9 63 17.2 49 49 E 6 9 30.1 1019 10 16.0934 N/A
7:53 pm 19:53 Sunny 81 27.2 63 17.2 54 54 E 5 7 30.1 1019 10 16.0934 N/A
8:53 pm 20:53 Clear 76 24.4 66 18.9 72 72 N N/A 30.11 1020 10 16.0934 N/A
9:12 pm 21:12 Clear 74 23.3 67 19.4 79 79 N N/A 30.09 1019 10 16.0934 N/A
9:53 pm 21:53 Clear 70 21.1 67 19.4 90 90 N N/A 30.11 1020 10 16.0934 N/A
10:53 pm 22:53 Clear 69 20.6 66 18.9 90 90 N N/A 30.13 1020 10 16.0934 N/A
11:53 pm 23:53 Clear 67 19.4 66 18.9 97 97 N N/A 30.12 1020 10 16.0934 N/A

Powered by AerisWeather